Home   Weather   Stäfa   Past weeks

Flag for Switzerland Past Weather in Stäfa, Zurich, Switzerland — Yesterday and Last 2 Weeks

Now
55 °F

Cool.


Feels Like: 55 °F
Forecast: 52 / 69 °F
Wind: 2 mph from Northwest

Location: Zuerich-Fluntern

Current Time: Sep 26, 2016 at 7:24:10 AM

Latest Report: Sep 26, 2016 at 6:00 AM


Visibility: N/A

Pressure: 30.18 "Hg

Humidity: 92%

Dew Point: 53 °F

Location of StäfaLocation

Past Weather in Stäfa — Graph

°F

Stäfa Temperature Yesterday

Maximum temperature yesterday: 71 °F (at 5:00 PM)
Minimum temperature yesterday: 52 °F (at 6:00 AM)
Average temperature yesterday: 60 °F

High & Low Weather Summary for the Past Weeks

 TemperatureHumidityPressure
High82 °F (Sep 12, 4:00 PM)100% (Sep 20, 3:00 AM)30.33 "Hg (Sep 20, 3:00 AM)
Low46 °F (Sep 22, 5:00 AM)45% (Sep 13, 4:00 PM)29.78 "Hg (Sep 15, 3:00 AM)
Average60 °F79%30.05 "Hg
* Reported Sep 11 6:00 AM — Sep 26 6:00 AM, Stäfa, Weather by CustomWeather, © 2016

Note: Actual official high and low records may vary slightly from our data, if they occured in-between our weather recording intervals... More about our weather records

Advertising

Stäfa Weather History for the Previous 24 Hours

Scroll right to see more
 ConditionsComfort  
Time TempWeatherWind HumidityBarometerVisibility
6:00 AM
Mon, Sep 26
55 °FCool.2 mph92%30.18 "HgN/A
5:00 AM56 °FCool.3 mph91%30.17 "HgN/A
4:00 AM56 °FCool.1 mph92%30.18 "HgN/A
3:00 AM57 °FCool.1 mph90%30.17 "HgN/A
2:00 AM57 °FCool.2 mph88%30.17 "HgN/A
1:00 AM57 °FCool.No wind87%30.17 "HgN/A
12:00 AM60 °FCool.2 mph81%30.16 "HgN/A
11:00 PM
Sun, Sep 25
60 °FCool.2 mph85%30.16 "HgN/A
10:00 PM60 °FCool.No wind82%30.15 "HgN/A
9:00 PM60 °FCool.1 mph78%30.14 "HgN/A
8:00 PM62 °FClear.1 mph75%30.12 "HgN/A
7:00 PM66 °FMild.1 mph69%30.10 "HgN/A
6:00 PM69 °FMild.3 mph52%30.08 "HgN/A
5:00 PM71 °FMild.3 mph47%30.06 "HgN/A
4:00 PM71 °FMild.3 mph47%30.06 "HgN/A
3:00 PM70 °FMild.2 mph53%30.07 "HgN/A
2:00 PM67 °FMild.3 mph62%30.10 "HgN/A
1:00 PM66 °FMild.3 mph67%30.12 "HgN/A
12:00 PM65 °FMild.3 mph73%30.14 "HgN/A
11:00 AM61 °FCool.2 mph75%30.16 "HgN/A
10:00 AM57 °FCool.1 mph88%30.18 "HgN/A
9:00 AM55 °FCool.2 mph96%30.19 "HgN/A
8:00 AM54 °FCool.2 mph99%30.19 "HgN/A
7:00 AM53 °FCool.2 mph98%30.19 "HgN/A
Weather by CustomWeather, © 2016

See weather overviewHow to use our weather pages